Madison, MN

1:45 AM CDT on October 23, 2019 (GMT -0500)
Madison-Lac Qui Parle County

Weather History for KDXX - August, 2019

Change the Weather History Date:

Wednesday, August 21, 2019

  Actual Average (WUND) Record (WUND)
Temperature  
Mean Temperature 67 °F -  
Max Temperature 77 °F - - (-1)
Min Temperature 57 °F - - (-1)
Cooling Degree Days 2    
Growing Degree Days 17 (Base 50)    
Moisture  
Dew Point 57 °F    
Average Humidity 75    
Maximum Humidity 100    
Minimum Humidity 41    
Precipitation  
Precipitation 0.00 in - - ()
Sea Level Pressure  
Sea Level Pressure 30.10 in    
Wind  
Wind Speed 4 mph (NNW)    
Max Wind Speed 12 mph    
Max Gust Speed 9 mph    
Visibility 10 miles    
Events      
Averages and records for this station are not official NWS values.
T = Trace of Precipitation, MM = Missing Value Source: NWS Daily Summary

Daily Weather History Graph

Daily Weather History Graph

Search for Another Location

Airport or City:

Astronomy

Aug. 21, 2019 Rise Set
Actual Time 6:33 AM CDT 8:21 PM CDT
Civil Twilight 6:02 AM CDT 8:52 PM CDT
Nautical Twilight 5:23 AM CDT 9:30 PM CDT
Astronomical Twilight 4:42 AM CDT 10:12 PM CDT
Moon 11:24 PM CDT (8/21) 12:24 PM CDT (8/21)
Length of Visible Light 14h 50m
Length of Day
13h 48m
Waning Gibbous, 69% of the Moon is Illuminated
Aug 21
Waning Gibbous
Aug 23
Last Quarter
Aug 30
New
Sep 5
First Quarter
Sep 13
Full

Hourly Weather History & Observations

Time (CDT) Temp. Dew Point Humidity Pressure Visibility Wind Dir Wind Speed Gust Speed Precip Events Conditions
12:15 AM 64.4 °F 59.0 °F 83% 30.10 in 10.0 mi North 5.8 mph - N/A   Clear
12:35 AM 64.4 °F 59.0 °F 83% 30.10 in 10.0 mi NNW 5.8 mph - N/A   Clear
12:36 AM 64.4 °F 59.0 °F 83% 30.10 in 10.0 mi NNW 5.8 mph - N/A   Clear
12:58 AM 62.6 °F 57.2 °F 82% 30.11 in 10.0 mi NW 3.5 mph - N/A   Clear
1:17 AM 62.6 °F 59.0 °F 88% 30.12 in 10.0 mi WNW 3.5 mph - N/A   Clear
1:36 AM 60.8 °F 60.8 °F 100% 30.12 in 10.0 mi West 4.6 mph - N/A   Clear
1:55 AM 60.8 °F 59.0 °F 94% 30.12 in 10.0 mi Calm Calm - N/A   Clear
1:56 AM 60.8 °F 59.0 °F 94% 30.12 in 10.0 mi Calm Calm - N/A   Clear
2:15 AM 60.8 °F 57.2 °F 88% 30.11 in 10.0 mi Calm Calm - N/A   Clear
2:36 AM 60.8 °F 59.0 °F 94% 30.11 in 10.0 mi NW 3.5 mph - N/A   Clear
2:55 AM 60.8 °F 57.2 °F 88% 30.10 in 10.0 mi NW 3.5 mph - N/A   Clear
2:56 AM 60.8 °F 57.2 °F 88% 30.10 in 10.0 mi NW 3.5 mph - N/A   Clear
3:15 AM 57.2 °F 57.2 °F 100% 30.09 in 10.0 mi NNW 5.8 mph - N/A   Clear
3:16 AM 57.2 °F 57.2 °F 100% 30.09 in 10.0 mi NNW 5.8 mph - N/A   Clear
3:35 AM 59.0 °F 57.2 °F 94% 30.08 in 10.0 mi NNW 4.6 mph - N/A   Clear
3:57 AM 57.2 °F 55.4 °F 94% 30.07 in 10.0 mi NW 3.5 mph - N/A   Clear
4:15 AM 57.2 °F 55.4 °F 94% 30.07 in 10.0 mi West 3.5 mph - N/A   Clear
4:35 AM 57.2 °F 55.4 °F 94% 30.06 in 10.0 mi NW 4.6 mph - N/A   Clear
4:36 AM 57.2 °F 55.4 °F 94% 30.06 in 10.0 mi NW 3.5 mph - N/A   Clear
4:55 AM 57.2 °F 57.2 °F 100% 30.06 in 10.0 mi WNW 5.8 mph - N/A   Clear
4:56 AM 57.2 °F 57.2 °F 100% 30.07 in 10.0 mi WNW 5.8 mph - N/A   Clear
5:19 AM 57.2 °F 55.4 °F 94% 30.09 in 10.0 mi West 5.8 mph - N/A   Clear
5:36 AM 57.2 °F 57.2 °F 100% 30.11 in 10.0 mi West 3.5 mph - N/A   Clear
5:56 AM 57.2 °F 55.4 °F 94% 30.12 in 10.0 mi West 3.5 mph - N/A   Clear
6:15 AM 57.2 °F 55.4 °F 94% 30.12 in 10.0 mi Calm Calm - N/A   Clear
6:16 AM 57.2 °F 55.4 °F 94% 30.12 in 10.0 mi Calm Calm - N/A   Clear
6:35 AM 57.2 °F 55.4 °F 94% 30.11 in 10.0 mi Calm Calm - N/A   Clear
6:39 AM 57.2 °F 55.4 °F 94% 30.12 in 10.0 mi West 3.5 mph - N/A   Clear
6:57 AM 59.0 °F 57.2 °F 94% 30.13 in 10.0 mi WSW 3.5 mph - N/A   Clear
7:16 AM 60.8 °F 57.2 °F 88% 30.14 in 10.0 mi Calm Calm - N/A   Clear
7:35 AM 60.8 °F 59.0 °F 94% 30.14 in 10.0 mi Calm Calm - N/A   Clear
7:36 AM 60.8 °F 59.0 °F 94% 30.13 in 10.0 mi Calm Calm - N/A   Clear
7:55 AM 60.8 °F 59.0 °F 94% 30.14 in 10.0 mi WNW 3.5 mph - N/A   Clear
7:56 AM 60.8 °F 59.0 °F 94% 30.14 in 10.0 mi WNW 3.5 mph - N/A   Clear
8:18 AM 62.6 °F 60.8 °F 94% 30.13 in 10.0 mi NW 5.8 mph - N/A   Clear
8:36 AM 62.6 °F 60.8 °F 94% 30.13 in 10.0 mi NW 3.5 mph - N/A   Clear
8:55 AM 62.6 °F 60.8 °F 94% 30.14 in 10.0 mi NW 5.8 mph - N/A   Clear
8:56 AM 62.6 °F 60.8 °F 94% 30.14 in 10.0 mi NW 4.6 mph - N/A   Clear
9:15 AM 64.4 °F 60.8 °F 88% 30.13 in 10.0 mi WNW 4.6 mph - N/A   Clear
9:16 AM 64.4 °F 60.8 °F 88% 30.13 in 10.0 mi NW 4.6 mph - N/A   Clear
9:35 AM 64.4 °F 60.8 °F 88% 30.14 in 10.0 mi WNW 3.5 mph - N/A   Clear
9:39 AM 64.4 °F 59.0 °F 83% 30.14 in 10.0 mi WNW 4.6 mph - N/A   Clear
9:58 AM 64.4 °F 60.8 °F 88% 30.13 in 10.0 mi NNW 5.8 mph - N/A   Clear
10:15 AM 66.2 °F 60.8 °F 83% 30.13 in 10.0 mi NW 4.6 mph - N/A   Clear
10:35 AM 68.0 °F 60.8 °F 78% 30.12 in 10.0 mi NNW 6.9 mph - N/A   Clear
10:36 AM 68.0 °F 60.8 °F 78% 30.12 in 10.0 mi NNW 6.9 mph - N/A   Clear
10:55 AM 69.8 °F 57.2 °F 64% 30.11 in 10.0 mi NNW 4.6 mph - N/A   Clear
10:56 AM 69.8 °F 57.2 °F 64% 30.11 in 10.0 mi NNW 4.6 mph - N/A   Clear
11:18 AM 69.8 °F 59.0 °F 68% 30.11 in 10.0 mi North 6.9 mph - N/A   Clear
11:37 AM 71.6 °F 59.0 °F 64% 30.12 in 10.0 mi North 8.1 mph - N/A   Clear
11:56 AM 73.4 °F 57.2 °F 57% 30.12 in 10.0 mi NW 8.1 mph - N/A   Clear
12:15 PM 73.4 °F 57.2 °F 57% 30.11 in 10.0 mi NNW 5.8 mph - N/A   Clear
12:16 PM 73.4 °F 57.2 °F 57% 30.11 in 10.0 mi NNW 4.6 mph - N/A   Clear
12:35 PM 73.4 °F 57.2 °F 57% 30.12 in 10.0 mi North 8.1 mph - N/A   Clear
12:57 PM 75.2 °F 55.4 °F 50% 30.11 in 10.0 mi NNW 11.5 mph - N/A   Clear
1:16 PM 75.2 °F 55.4 °F 50% 30.11 in 10.0 mi NNW 10.4 mph - N/A   Clear
1:35 PM 75.2 °F 55.4 °F 50% 30.10 in 10.0 mi NNW 10.4 mph - N/A   Clear
1:36 PM 75.2 °F 57.2 °F 53% 30.10 in 10.0 mi NW 8.1 mph - N/A   Clear
1:55 PM 75.2 °F 55.4 °F 50% 30.11 in 10.0 mi NNW 8.1 mph - N/A   Clear
1:59 PM 75.2 °F 55.4 °F 50% 30.11 in 10.0 mi NW 10.4 mph - N/A   Clear
2:18 PM 75.2 °F 55.4 °F 50% 30.11 in 10.0 mi WNW 9.2 mph - N/A   Clear
2:35 PM 75.2 °F 53.6 °F 47% 30.10 in 10.0 mi NNW 8.1 mph - N/A   Clear
2:55 PM 75.2 °F 55.4 °F 50% 30.10 in 10.0 mi NW 8.1 mph - N/A   Clear
2:56 PM 75.2 °F 55.4 °F 50% 30.10 in 10.0 mi NW 8.1 mph - N/A   Clear
3:15 PM 77.0 °F 53.6 °F 44% 30.10 in 10.0 mi NW 6.9 mph - N/A   Clear
3:16 PM 77.0 °F 53.6 °F 44% 30.10 in 10.0 mi NNW 6.9 mph - N/A   Clear
3:38 PM 77.0 °F 51.8 °F 41% 30.10 in 10.0 mi NNW 4.6 mph - N/A   Clear
3:57 PM 77.0 °F 53.6 °F 44% 30.09 in 10.0 mi North 3.5 mph - N/A   Clear
4:16 PM 77.0 °F 53.6 °F 44% 30.08 in 10.0 mi North 6.9 mph - N/A   Clear
4:35 PM 77.0 °F 53.6 °F 44% 30.08 in 10.0 mi North 5.8 mph 9.2 mph N/A   Clear
4:36 PM 77.0 °F 53.6 °F 44% 30.08 in 10.0 mi North 4.6 mph 9.2 mph N/A   Clear
4:55 PM 77.0 °F 53.6 °F 44% 30.08 in 10.0 mi North 10.4 mph - N/A   Clear
5:17 PM 75.2 °F 53.6 °F 47% 30.07 in 10.0 mi NNE 9.2 mph - N/A   Clear
5:36 PM 75.2 °F 53.6 °F 47% 30.07 in 10.0 mi North 6.9 mph - N/A   Clear
5:55 PM 75.2 °F 55.4 °F 50% 30.07 in 10.0 mi North 8.1 mph - N/A   Clear
5:56 PM 75.2 °F 55.4 °F 50% 30.07 in 10.0 mi North 8.1 mph - N/A   Clear
6:15 PM 75.2 °F 55.4 °F 50% 30.07 in 10.0 mi NNE 8.1 mph - N/A   Clear
6:16 PM 75.2 °F 55.4 °F 50% 30.07 in 10.0 mi NNE 8.1 mph - N/A   Clear
6:39 PM 73.4 °F 55.4 °F 53% 30.06 in 10.0 mi North 5.8 mph - N/A   Clear
6:56 PM 73.4 °F 57.2 °F 57% 30.06 in 10.0 mi North 5.8 mph - N/A   Clear
7:16 PM 73.4 °F 57.2 °F 57% 30.05 in 10.0 mi North 4.6 mph - N/A   Clear
7:35 PM 71.6 °F 59.0 °F 64% 30.05 in 10.0 mi North 3.5 mph - N/A   Clear
7:36 PM 71.6 °F 59.0 °F 64% 30.05 in 10.0 mi North 3.5 mph - N/A   Clear
7:55 PM 69.8 °F 59.0 °F 68% 30.05 in 10.0 mi Calm Calm - N/A   Clear
8:17 PM 69.8 °F 57.2 °F 64% 30.05 in 10.0 mi NNE 3.5 mph - N/A   Clear
8:36 PM 68.0 °F 57.2 °F 68% 30.06 in 10.0 mi Calm Calm - N/A   Clear
8:55 PM 66.2 °F 57.2 °F 73% 30.06 in 10.0 mi Calm Calm - N/A   Clear
8:56 PM 66.2 °F 57.2 °F 73% 30.06 in 10.0 mi Calm Calm - N/A   Clear
9:15 PM 66.2 °F 57.2 °F 73% 30.07 in 10.0 mi Calm Calm - N/A   Clear
9:37 PM 64.4 °F 57.2 °F 77% 30.08 in 10.0 mi Calm Calm - N/A   Clear
9:56 PM 62.6 °F 55.4 °F 77% 30.08 in 10.0 mi NNE 3.5 mph - N/A   Clear
10:15 PM 60.8 °F 55.4 °F 82% 30.08 in 10.0 mi NNE 3.5 mph - N/A   Clear
10:16 PM 60.8 °F 55.4 °F 82% 30.08 in 10.0 mi NNE 3.5 mph - N/A   Clear
10:35 PM 62.6 °F 55.4 °F 77% 30.08 in 10.0 mi Calm Calm - N/A   Clear
10:36 PM 62.6 °F 55.4 °F 77% 30.08 in 10.0 mi Calm Calm - N/A   Clear
10:59 PM 60.8 °F 55.4 °F 82% 30.08 in 10.0 mi Calm Calm - N/A   Clear
11:16 PM 60.8 °F 55.4 °F 82% 30.08 in 10.0 mi Calm Calm - N/A   Clear
11:36 PM 62.6 °F 55.4 °F 77% 30.09 in 10.0 mi Calm Calm - N/A   Clear
11:55 PM 59.0 °F 57.2 °F 94% 30.09 in 10.0 mi Calm Calm - N/A   Clear
11:56 PM 59.0 °F 57.2 °F 94% 30.09 in 10.0 mi Calm Calm - N/A   Clear